#timestamp,LO_Frequency,Hit,StdDev 
1503054015.4,286046999.2,N,0.6
1503054035.3,286046996.7,P,1.0
1503054055.1,286046996.6,Y,0.0
1503054075.8,286047000.9,P,1.4
1503054095.7,286047001.2,N,1.4
1503054115.5,286046999.4,N,1.2
1503054135.4,286046999.0,N,1.2
1503054155.2,286046998.9,N,1.1
1503054175.0,286046997.1,N,1.3
1503054175.9,286046997.1,N,1.4
1503054195.8,286046999.0,N,1.4
1503054215.6,286046998.9,N,1.3
1503054235.5,286046998.9,N,1.2
1503054255.3,286046998.7,N,1.2
1503054275.1,286046998.6,N,1.1
1503054295.9,286047001.2,N,1.2
1503054315.7,286046998.1,N,1.2
1503054335.5,286047000.6,N,1.2
1503054355.4,286046999.9,N,1.2
1503054375.2,286047000.2,N,1.2
1503054395.1,286047002.6,N,1.4
1503054396.0,286047002.6,N,1.5
1503054415.8,286047001.9,N,1.6
1503054435.6,286047001.8,N,1.6
1503054455.5,286047002.0,N,1.6
1503054475.3,286047004.4,N,1.8
1503054495.1,286047001.9,N,1.8
1503054515.9,286047004.4,N,2.0
1503054535.7,286047003.9,N,2.1
1503054555.6,286047004.1,N,2.1
1503054575.4,286047004.3,N,2.2
1503054595.2,286047001.5,N,2.2
1503054615.1,286047001.3,N,2.1
1503054616.0,286042930.8,Y,0.0
1503054635.8,286047004.1,P,1.6
1503054655.7,286047002.2,N,1.3
1503054675.5,286047001.3,N,1.3
1503054695.3,286047004.3,Y,0.0
1503054715.2,286046999.7,P,1.2
1503054735.0,286046999.8,N,1.1
1503054735.9,286046999.8,N,1.0
1503054755.8,286047000.2,N,0.9
1503054775.6,286047000.3,N,0.8
1503054795.4,286047000.6,N,0.8
1503054815.3,286046999.9,N,0.7
1503054835.1,286046999.8,N,0.7
1503054855.8,286047002.5,Y,0.0
1503054875.7,286047002.7,P,1.2
1503054895.5,286047002.6,N,1.1
1503054915.4,286047001.9,N,1.0
1503054935.2,286047004.4,Y,0.0
1503054955.0,286047004.3,P,1.2
1503054955.9,286047004.3,P,1.1
1503054975.8,286047002.9,N,1.0
1503054995.6,286047010.7,Y,0.0
1503055015.5,286047010.7,P,3.7
1503055035.3,286047008.5,N,3.1
1503055055.1,286047005.5,N,2.8
1503055075.9,286047001.3,N,3.4
1503055095.7,286047001.4,N,3.5
1503055115.6,286047002.5,N,3.4
1503055135.4,286046999.8,N,3.6
1503055155.2,286046998.5,N,3.8
1503055175.1,286046998.4,N,3.9
1503055176.0,286046998.4,N,4.0
1503055195.8,286047000.9,N,3.8
1503055215.6,286047001.2,N,3.7
1503055235.5,286047000.8,N,3.6
1503055255.3,286047000.7,N,3.5
1503055275.2,286046998.7,N,3.5
1503055295.0,286046998.8,N,3.4
1503055295.9,286046998.8,N,3.4
1503055315.7,286046999.5,N,3.3
1503055335.6,286046998.7,N,3.3
1503055355.4,286046999.0,N,3.3
1503055375.3,286046999.3,N,3.2
1503055395.1,286046996.5,N,3.3
1503055415.8,286046999.6,N,3.2
1503055435.7,286046999.4,N,3.2
1503055455.5,286046998.2,N,3.2
1503055475.4,286046999.3,N,3.1
1503055495.2,286046999.4,N,3.1
1503055515.0,286046996.6,N,3.1
1503055515.9,286046996.6,N,3.1
1503055535.8,286046996.9,N,3.1
1503055555.6,286046998.7,N,2.5
1503055575.5,286046998.4,N,1.8
1503055595.3,286046999.4,N,1.5
1503055615.1,286046998.9,N,1.4
1503055635.9,286047000.7,N,1.4
1503055655.7,286046998.7,N,1.2
1503055675.6,286046998.6,N,1.2
1503055695.4,286046998.1,N,1.2
1503055715.2,286046998.2,N,1.2
1503055735.1,286046998.2,N,1.2
1503055736.0,286046998.2,N,1.2
1503055755.8,286046998.7,N,1.1
1503055775.6,286046998.8,N,1.0
1503055795.5,286046998.4,N,0.9
1503055815.3,286046998.6,N,0.9
1503055835.2,286046998.5,N,0.9
1503055855.0,286046998.1,N,0.9
1503055855.9,286046998.1,N,0.9
1503055875.8,286046998.5,N,0.9
1503055895.6,286047000.5,N,1.0
1503055915.4,286047000.4,N,1.0
1503055935.3,286047000.6,N,1.0
1503055955.1,286046999.9,N,1.0
1503055975.8,286047002.6,N,1.2
1503055995.7,286047000.1,N,1.2
1503056015.5,286047000.0,N,1.3
1503056035.4,286047001.0,N,1.3
1503056055.2,286046999.9,N,1.2
1503056075.0,286046999.8,N,1.2
1503056075.9,286046999.8,N,1.1
1503056095.8,286047000.4,N,1.1
1503056115.6,286046999.8,N,1.1
1503056135.5,286047000.2,N,1.1
1503056155.3,286047000.6,N,1.1
1503056175.1,286047000.1,N,1.1
1503056195.9,286047002.3,N,1.2
1503056215.7,286047002.5,N,1.3
1503056235.6,286047002.8,N,1.4
1503056255.4,286047000.2,N,1.3
1503056275.2,286046999.8,N,1.3
1503056295.1,286047002.5,N,1.3
1503056296.0,286047002.5,N,1.4
1503056315.8,286047001.9,N,1.4
1503056335.7,286047002.6,N,1.4
1503056355.5,286047000.1,N,1.3
1503056375.3,286046999.8,N,1.3
1503056395.2,286047002.3,N,1.3
1503056415.0,286047001.5,N,1.2
1503056415.9,286047001.5,N,1.1
1503056435.7,286047001.9,N,1.1
1503056455.6,286047002.5,N,1.1
1503056475.4,286047001.3,N,1.1
1503056495.3,286047001.8,N,1.1
1503056515.1,286047004.4,Y,0.0
1503056535.9,286047000.3,P,0.4
1503056555.7,286047000.3,N,0.4
1503056575.5,286046999.8,N,0.5
1503056595.4,286047000.6,N,0.4
1503056615.2,286047001.0,N,0.5
1503056635.0,286047000.7,N,0.4
1503056635.9,286047000.7,N,0.4
1503056655.8,286046999.9,N,0.4
1503056675.6,286047002.4,Y,0.0
1503056695.5,286047000.4,P,0.0
1503056715.3,286047000.3,P,0.1
1503056735.1,286047001.0,P,0.3
1503056755.9,286047001.0,Y,0.0
1503056775.7,286046998.3,P,1.1
1503056795.6,286047000.7,N,1.1
1503056815.4,286047000.6,N,1.0
1503056835.2,286047000.7,N,0.9
1503056855.1,286047002.8,N,1.3
1503056856.0,286047002.8,N,1.4
1503056875.8,286047000.1,N,1.4
1503056895.6,286047000.1,N,1.3
1503056915.5,286047000.3,N,1.2
1503056935.3,286047000.9,N,1.2
1503056955.2,286047000.6,N,1.1
1503056975.9,286047000.3,N,1.1
1503056995.7,286047002.8,N,1.2
1503057015.6,286046999.9,N,1.2
1503057035.4,286046999.9,N,1.2
1503057055.3,286046999.9,N,1.1
1503057075.1,286047000.0,N,1.1
1503057076.0,286047000.0,N,1.1
1503057095.8,286047000.2,N,1.1
1503057115.7,286047000.1,N,1.0
1503057135.5,286046999.7,N,1.0
1503057155.3,286047002.2,N,1.1
1503057175.2,286047002.5,N,1.1
1503057195.0,286047002.6,N,1.2
1503057195.9,286047002.6,N,1.2
1503057215.8,286046999.7,N,1.2
1503057235.6,286047002.4,N,1.2
1503057255.4,286047000.1,N,1.2
1503057275.3,286046999.7,N,1.2
1503057295.1,286046999.8,N,1.2
1503057315.9,286047002.6,N,1.2
1503057335.7,286047002.8,N,1.2
1503057355.5,286046999.8,N,1.2
1503057375.4,286047000.1,N,1.2
1503057395.2,286047002.7,N,1.2
1503057415.0,286047002.6,N,1.2
1503057415.9,286047002.6,N,1.2
1503057435.8,286046999.7,N,1.3
1503057455.6,286047000.2,N,1.3
1503057475.5,286047002.5,N,1.3
1503057495.3,286047000.1,N,1.3
1503057515.1,286047002.2,N,1.3
1503057535.9,286047001.9,N,1.3
1503057555.7,286047001.6,N,1.3
1503057575.6,286047002.6,N,1.3
1503057595.4,286047001.8,N,1.3
